Golden Valley, AZ

8:48 PM MST on August 30, 2016 (GMT -0700)
Kingman

Weather History for KIGM - December, 2012

Change the Weather History Date:

Thursday, December 13, 2012

  Actual Average Record
Temperature  
Mean Temperature 47 °F 43 °F  
Max Temperature 59 °F 54 °F 74 °F (2010)
Min Temperature 35 °F 32 °F 15 °F (1932)
Degree Days  
Heating Degree Days 18 22  
Month to date heating degree days 195 274  
Since 1 July heating degree days 603 840  
Cooling Degree Days 0 0  
Month to date cooling degree days 0 0  
Year to date cooling degree days 2297 2093  
Moisture  
Dew Point 29 °F    
Average Humidity 57    
Maximum Humidity 93    
Minimum Humidity 21    
Precipitation  
Precipitation 0.04 in 0.02 in 1.84 in (1934)
Month to date precipitation 0.04 0.31  
Year to date precipitation 6.92 7.96  
Sea Level Pressure  
Sea Level Pressure 29.71 in    
Wind  
Wind Speed 9 mph (SSE)    
Max Wind Speed 28 mph    
Max Gust Speed 32 mph    
Visibility 10 miles    
Events Rain    
T = Trace of Precipitation, MM = Missing Value Source: NWS Daily Summary

Daily Weather History Graph

Daily Weather History Graph

Search for Another Location

Airport or City:

Trip Planner

Search our weather history database for the weather conditions in past years. The results will help you decide how hot, cold, wet, or windy it might be!

Date:

Astronomy

Dec. 13, 2012 Rise Set
Actual Time 7:36 AM MST 5:24 PM MST
Civil Twilight 7:07 AM MST 5:52 PM MST
Nautical Twilight 6:36 AM MST 6:24 PM MST
Astronomical Twilight 6:05 AM MST 6:55 PM MST
Moon 7:49 AM MST (12/13) 6:10 PM MST (12/13)
Length of Visible Light 10h 44m
Length of Day
9h 48m
New Moon, 0% of the Moon is Illuminated
Dec 13
New Moon
Dec 19
First Quarter
Dec 28
Full
Jan 4
Last Quarter
Jan 11
New

Hourly Weather History & Observations

Time (MST) Temp. Windchill Dew Point Humidity Pressure Visibility Wind Dir Wind Speed Gust Speed Precip Events Conditions
12:51 AM 48.9 °F - 12.0 °F 23% 29.75 in 10.0 mi SE 15.0 mph 19.6 mph N/A   Clear
1:51 AM 48.9 °F - 12.0 °F 23% 29.73 in 10.0 mi ESE 17.3 mph 24.2 mph N/A   Clear
2:51 AM 48.9 °F - 10.9 °F 22% 29.72 in 10.0 mi ESE 16.1 mph 23.0 mph N/A   Clear
3:51 AM 48.9 °F - 10.9 °F 22% 29.72 in 10.0 mi ESE 13.8 mph 21.9 mph N/A   Clear
4:51 AM 48.2 °F - 12.2 °F 24% 29.81 in 10.0 mi ESE 8.1 mph - N/A   Clear
5:51 AM 48.0 °F - 16.0 °F 28% 29.70 in 10.0 mi NW 4.6 mph - N/A   Clear
6:51 AM 45.0 °F - 17.1 °F 33% 29.72 in 10.0 mi Calm Calm - N/A   Clear
7:51 AM 37.0 °F 34.5 °F 16.0 °F 42% 29.76 in 10.0 mi SSE 3.5 mph - N/A   Clear
8:51 AM 48.0 °F - 21.0 °F 34% 29.75 in 10.0 mi Calm Calm - N/A   Clear
9:51 AM 51.1 °F - 25.0 °F 36% 29.75 in 10.0 mi Calm Calm - N/A   Clear
10:51 AM 54.0 °F - 28.9 °F 38% 29.75 in 10.0 mi South 10.4 mph 19.6 mph N/A   Mostly Cloudy
11:51 AM 55.9 °F - 30.0 °F 37% 29.73 in 10.0 mi SSE 9.2 mph 19.6 mph N/A   Overcast
12:51 PM 57.0 °F - 34.0 °F 42% 29.70 in 10.0 mi ESE 20.7 mph 32.2 mph N/A   Overcast
1:51 PM 52.0 °F - 35.1 °F 53% 29.71 in 10.0 mi SE 21.9 mph - N/A   Overcast
2:35 PM 50.0 °F - 39.2 °F 66% 29.80 in 10.0 mi SSW 9.2 mph - 0.00 in Rain Light Rain
2:51 PM 50.0 °F - 39.9 °F 68% 29.69 in 10.0 mi SSW 6.9 mph - 0.00 in   Overcast
5:51 PM 46.9 °F - 44.1 °F 90% 29.65 in 9.0 mi Variable 3.5 mph - 0.01 in Rain Light Rain
6:00 PM 46.4 °F 42.9 °F 44.6 °F 93% 29.75 in 10.0 mi WSW 6.9 mph - 0.00 in Rain Light Rain
6:14 PM 46.4 °F 44.3 °F 44.6 °F 93% 29.75 in 10.0 mi West 4.6 mph - 0.01 in   Overcast
6:51 PM 46.0 °F 44.8 °F 44.1 °F 93% 29.65 in 10.0 mi ENE 3.5 mph - 0.01 in   Overcast
7:51 PM 48.9 °F - 39.0 °F 69% 29.65 in 10.0 mi East 9.2 mph - N/A   Overcast
8:51 PM 46.9 °F - 42.1 °F 83% 29.62 in 10.0 mi ESE 13.8 mph - N/A   Overcast
9:51 PM 46.4 °F 40.7 °F 39.2 °F 76% 29.71 in 10.0 mi SSW 12.7 mph 21.9 mph N/A Rain Light Rain
10:51 PM 46.0 °F 44.8 °F 39.0 °F 76% 29.58 in 10.0 mi WSW 3.5 mph - 0.00 in   Overcast
11:51 PM 44.6 °F 42.2 °F 41.0 °F 87% 29.66 in 8.0 mi NNE 4.6 mph - N/A Rain Light Rain